Regional Weather Roundup
Issued by NWS Charleston, SC

Current Version | Previous Version | Graphics & Text | Print | Product List | Glossary On
Versions: 1 2 3 4 5 6 7 8 9 10 11 12 13 14 15 16 17 18 19 20 21 22 23 24 25 26 27 28 29 30 31 32 33 34 35 36 37 38 39 40 41 42 43 44 45 46 47 48 49 50
000
ASUS42 KCHS 212110
RWRCHS
REGIONAL WEATHER ROUNDUP
NATIONAL WEATHER SERVICE CHARLESTON SC
500 PM EDT SUN SEP 21 2014

NOTE: "FAIR" INDICATES FEW OR NO CLOUDS BELOW 12,000 FEET WITH NO
SIGNIFICANT WEATHER AND/OR OBSTRUCTIONS TO VISIBILITY.

NOT ALL STATIONS ARE QUALITY CONTROLLED BY THE NATIONAL
WEATHER SERVICE. USE DATA WITH CAUTION...ESPECIALLY
DEWPOINT OBSERVATIONS.

SCZ027-030-031-034>040-042>050-212200-
...SOUTH CAROLINA...

CITY           SKY/WX    TMP DP  RH WIND       PRES   REMARKS
N CHARLESTON   MOSUNNY   88  61  40 W9G18     29.89S
WATERFRONT PRK   N/A     86 N/A N/A W7          N/A
FORT JOHNSON   NOT AVBL
MOUNT PLEASANT FAIR      88  63  42 W3        29.89S
JOHNS ISLAND   CLEAR     88  72  58 CALM      29.90S HX  94
PINOPOLIS        N/A     88  66  48 W8        29.81F HX  90
MONCKS CORNER    N/A     88  66  48 SW3       29.88S HX  90
SUMMERVILLE    FAIR      88  64  45 SW6       29.90S
BEAUFORT MCAS  MOSUNNY   87  62  43 SW9       29.90F
BEAUFORT ARPT  FAIR      88  64  45 W7        29.90F
HILTON HEAD IS SUNNY     86  59  39 W8        29.92F
GEORGETOWN     NOT AVBL
WALTERBORO     CLEAR     88  55  33 W8        29.90S
ORANGEBURG     MOSUNNY   88  59  37 W12       29.89S
BARNWELL       FAIR      88  63  42 W8        29.90F
AIKEN          FAIR      86  66  51 W10       29.94S
MANNING        FAIR      88  64  45 W8        29.88R
KINGSTREE      NOT AVBL
COLUMBIA       MOSUNNY   89  61  38 W10       29.87S
SUMTER         MOSUNNY   88  64  45 W9        29.86S
FLORENCE       SUNNY     87  62  43 SW12      29.85S
MYRTLE BEACH   SUNNY     88  63  42 W10       29.86S
N MYRTLE BEACH SUNNY     85  62  46 W8        29.85S

$$

GAZ063-065-086>088-099>101-113>116-118-119-134-136>141-150-212200-
...GEORGIA...

CITY           SKY/WX    TMP DP  RH WIND       PRES   REMARKS
SAVANNAH ARPT  MOSUNNY   88  62  41 W8        29.92S
HUNTER AAF     SUNNY     88  63  43 W9        29.90F
FORT STEWART   SUNNY     89  59  36 W9        29.91F
STATESBORO     NOT AVBL
SYLVANIA       PTCLDY    88  65  45 W7        29.92F
CLAXTON        FAIR      88  64  45 W10       29.93S
THOMSON        SUNNY     88  69  54 W5        29.96F HX  92
AUGUSTA-BUSH   SUNNY     88  60  38 NW12      29.90S
AUGUSTA-DANIEL SUNNY     88  61  40 W8        29.92F
SWAINSBORO     FAIR      90  63  40 W6        29.94S HX  90
VIDALIA        MOSUNNY   88  61  40 W6        29.94F
ALMA           SUNNY     88  55  32 VRB3      29.94F
WAYCROSS       NOT AVBL
JESUP          FAIR      91  59  33 NW5       29.94S HX  90
BRUNSWICK      SUNNY     88  59  37 N3        29.95S
SAINT SIMONS   SUNNY     84  65  52 SE9       29.94F

$$

SCZ027-028-034-036>038-045-046-048>050-GAZ119-141-212200-
...LAKE AND SUPPLEMENTAL COASTAL OBSERVATIONS...

STATION/POSITION TIME  TEMP    WIND        PRES    WAVE   SWELL
                       AIR SEA DIR/SP/G            HT/PER HT/PER/DIR
                 (UTC) (F)     (DEG/KT/KT) (MB)    (FT/S) (FT/S/D)
UPR LAKE MARION  NOT AVBL
WINYAH BAY       2000   84     280/  7     1011.0S
LAKE MURRAY      2000   85     260/ 11/ 15 1011.2S
ACE BASIN NERRS  2000   87     300/  3     1013.0S
FORT PULASKI     2100   85     280/  6/  7 1013.1F
SAPELO ISLAND    2000   88     280/  7     1015.0S

$$

ANZ835-935-AMZ111-154-330-350-352-354-374-450-454-472-212200-
...C-MAN AND BUOY OBSERVATIONS...

STATION/POSITION TIME  TEMP    WIND        PRES    WAVE   SWELL
                       AIR SEA DIR/SP/G            HT/PER HT/PER/DIR
                 (UTC) (F)     (DEG/KT/KT) (MB)    (FT/S) (FT/S/D)
FOLLY BEACH CMAN 2000   85     310/  4/  6 1012.8F
BUOY 41004       2100   80 82  250/ 10/ 14 1012.2F   3/ 7   3/ 7
BUOY 41008       2100   81 83  210/  6/  8 1013.9F   3/ 6   2/ 70/ 6
5E ST. MARYS GA  2100      84                N/A     3/10
FRYING PAN BUOY  NOT AVBL
BUOY 41025       2100   77     280/ 17/ 21 1008.0R   6/ 9   3/100/ 9
CAPE LOOKOUT NC  2000   81     280/  9/ 10 1009.1R
BUOY 41002       2034   80 81  280/ 17/ 19 1012.2R  11/ 8
BUOY 41010       2100   82 85  320/  6/ 10 1014.7R   5/ 9   5/ 20/ 9
BUOY 41012       NOT AVBL
ST AUGUSTINE FL  2100   79      30/  5/  6 1015.5F
CAPERS NEARSHORE 2000   84     280/  6/  6   N/A
FRIPP NEARSHORE  NOT AVBL


$$


USA.gov is the U.S. government's official web portal to all federal, state and local government web resources and services.